Location: Puketoi
(40.5833°S, 176.0167°E)
Time: 16:03:59
(UTC+00:00)

PAYLOAD A - Pass Details

Date: 29 September 2023
Orbit: 691 x 830 km, 98.5° (Epoch: 10 December)

Event Time Altitude Azimuth Distance (km) Brightness Sun altitude
Exits shadow 14:50:57 39° 178° (S) 1,248 5.2 -32.9°
Drops below altitude 10° 14:54:22 10° 189° (S) 2,471 6.9 -32.4°
Sets 14:56:45 0° 190° (S) 3,411 7.7 -32.0°
